Aduana, Mexico

10:49 AM on February 23, 2017 (GMT +0000)
Cancun International

Weather History for MMUN - March, 2013

Change the Weather History Date:

Friday, March 1, 2013

  Actual Average Record
Temperature  
Mean Temperature 72 °F -  
Max Temperature 75 °F 83 °F 89 °F (1998)
Min Temperature 68 °F 66 °F 59 °F (1999)
Cooling Degree Days 6    
Growing Degree Days 22 (Base 50)    
Moisture  
Dew Point 66 °F    
Average Humidity 83    
Maximum Humidity 94    
Minimum Humidity 68    
Precipitation  
Precipitation 1.35 in - - ()
Sea Level Pressure  
Sea Level Pressure 29.96 in    
Wind  
Wind Speed 8 mph ()    
Max Wind Speed 20 mph    
Max Gust Speed -    
Visibility 5.7 miles    
Events Rain    
Averages and records for this station are not official NWS values.
T = Trace of Precipitation, MM = Missing Value Source: Averaged Metar Reports

Daily Weather History Graph

Daily Weather History Graph

Search for Another Location

Airport or City:

Trip Planner

Search our weather history database for the weather conditions in past years. The results will help you decide how hot, cold, wet, or windy it might be!

Date:

Astronomy

Mar. 01, 2013 Rise Set
Actual Time 6:07 AM CST 5:52 PM CST
Civil Twilight 5:45 AM CST 6:14 PM CST
Nautical Twilight 5:19 AM CST 6:40 PM CST
Astronomical Twilight 4:53 AM CST 7:05 PM CST
Moon 9:43 PM CST (3/1) 8:31 AM CST (3/1)
Length of Visible Light 12h 29m
Length of Day
11h 44m
Waning Gibbous, 83% of the Moon is Illuminated
Mar 1
Waning Gibbous
Mar 4
Last Quarter
Mar 11
New
Mar 19
First Quarter
Mar 27
Full

Hourly Weather History & Observations

Time (CST) Temp. Dew Point Humidity Pressure Visibility Wind Dir Wind Speed Gust Speed Precip Events Conditions
12:45 AM 71.6 °F 69.8 °F 94% 29.93 in 5.0 mi North 5.8 mph - N/A Rain Light Rain
1:44 AM 71.6 °F 69.8 °F 94% 29.91 in 5.0 mi NNW 5.8 mph - N/A   Overcast
2:46 AM 71.6 °F 69.8 °F 94% 29.89 in 5.0 mi NNW 5.8 mph - N/A   Overcast
3:46 AM 71.6 °F 69.8 °F 94% 29.90 in 5.0 mi NNW 6.9 mph - N/A   Overcast
4:44 AM 71.6 °F 69.8 °F 94% 29.91 in 5.0 mi NW 9.2 mph - N/A Rain Light Rain
5:43 AM 71.6 °F 69.8 °F 94% 29.91 in 5.0 mi NW 8.1 mph - N/A Rain Light Rain
6:42 AM 71.6 °F 69.8 °F 94% 29.94 in 5.0 mi NNW 5.8 mph - N/A Rain Light Rain
7:44 AM 71.6 °F 69.8 °F 94% 29.95 in 6.0 mi NNW 3.5 mph - N/A   Overcast
8:48 AM 71.6 °F 68.0 °F 88% 29.98 in 6.0 mi NNW 8.1 mph - N/A   Overcast
9:42 AM 73.4 °F 69.8 °F 88% 29.99 in 6.0 mi NNW 8.1 mph - N/A   Overcast
10:50 AM 75.2 °F 68.0 °F 78% 29.98 in 6.0 mi NNW 11.5 mph - N/A   Overcast
11:47 AM 75.2 °F 68.0 °F 78% 29.96 in 6.0 mi NW 12.7 mph - N/A   Overcast
12:41 PM 75.2 °F 66.2 °F 73% 29.94 in 6.0 mi NNW 12.7 mph - N/A   Overcast
1:43 PM 71.6 °F 66.2 °F 83% 29.93 in 6.0 mi NW 15.0 mph - N/A   Overcast
2:43 PM 71.6 °F 64.4 °F 78% 29.92 in 6.0 mi NW 19.6 mph - N/A   Overcast
3:44 PM 69.8 °F 62.6 °F 78% 29.93 in 6.0 mi NW 17.3 mph - N/A   Overcast
4:47 PM 69.8 °F 62.6 °F 78% 29.94 in 6.0 mi NNW 13.8 mph - N/A   Overcast
5:43 PM 69.8 °F 62.6 °F 78% 29.97 in 6.0 mi NW 13.8 mph - N/A   Overcast
6:47 PM 69.8 °F 60.8 °F 73% 29.98 in 6.0 mi NW 10.4 mph - N/A   Overcast
7:42 PM 69.8 °F 60.8 °F 73% 30.01 in 6.0 mi NW 9.2 mph - N/A   Overcast
8:43 PM 69.8 °F 60.8 °F 73% 30.03 in 6.0 mi NNW 11.5 mph - N/A   Overcast
9:49 PM 68.0 °F 59.0 °F 73% 30.04 in 6.0 mi NNW 10.4 mph - N/A   Overcast
10:43 PM 68.0 °F 57.2 °F 68% 30.04 in 6.0 mi NNW 10.4 mph - N/A   Overcast
11:46 PM 68.0 °F 59.0 °F 73% 30.04 in 6.0 mi NNW 10.4 mph - N/A   Overcast